• In Uzbekistan
  • List of Countries
  • For 7 days
  • Water Temperature
  • Weather Map
  • Weather Widgets
  • user-avatar
    Login

    Hourly Weather Swierczyna

    Today, 16 October, Wednesday

    Time Temperature Precipitation Wind Pressure Humidity
    00:00 +13°C° 0 mm 3 mps 741 mmHg 77%
    01:00 +14°C° 0 mm 2 mps 741 mmHg 78%
    02:00 +13°C° 0 mm 3 mps 741 mmHg 76%
    03:00 +13°C° 0 mm 3 mps 740 mmHg 75%
    04:00 +13°C° 0 mm 3 mps 740 mmHg 73%
    05:00 +13°C° 0 mm 4 mps 740 mmHg 71%
    06:00 +14°C° 0 mm 4 mps 740 mmHg 69%
    07:00 +14°C° 0 mm 5 mps 741 mmHg 67%
    08:00 +15°C° 0 mm 5 mps 741 mmHg 67%
    09:00 +16°C° 0 mm 6 mps 741 mmHg 67%
    10:00 +18°C° 0 mm 7 mps 742 mmHg 67%
    11:00 +18°C° 0 mm 7 mps 742 mmHg 66%
    12:00 +19°C° 0 mm 6 mps 743 mmHg 65%
    13:00 +19°C° 0 mm 6 mps 743 mmHg 64%
    14:00 +17°C° 0 mm 6 mps 743 mmHg 68%
    15:00 +16°C° 0 mm 5 mps 743 mmHg 72%
    16:00 +14°C° 0 mm 5 mps 743 mmHg 76%
    17:00 +14°C° 0 mm 4 mps 744 mmHg 78%
    18:00 +13°C° 0 mm 4 mps 744 mmHg 81%
    19:00 +12°C° 0 mm 4 mps 744 mmHg 83%
    20:00 +12°C° 0 mm 4 mps 745 mmHg 82%
    21:00 +11°C° 0 mm 4 mps 745 mmHg 81%
    22:00 +11°C° 0 mm 3 mps 745 mmHg 79%
    23:00 +11°C° 0 mm 3 mps 746 mmHg 82%

    Tomorrow, 17 October, Thursday

    Time Temperature Precipitation Wind Pressure Humidity
    00:00 +10°C° 0 mm 3 mps 746 mmHg 85%
    01:00 +10°C° 0 mm 3 mps 746 mmHg 88%
    02:00 +10°C° 0 mm 3 mps 746 mmHg 87%
    03:00 +10°C° 0 mm 3 mps 746 mmHg 86%
    04:00 +10°C° 0 mm 3 mps 746 mmHg 86%
    05:00 +10°C° 0 mm 3 mps 746 mmHg 84%
    06:00 +10°C° 0 mm 3 mps 746 mmHg 82%
    07:00 +10°C° 0 mm 3 mps 746 mmHg 80%
    08:00 +12°C° 0 mm 3 mps 746 mmHg 72%
    09:00 +14°C° 0 mm 3 mps 746 mmHg 64%
    10:00 +17°C° 0 mm 4 mps 747 mmHg 56%
    11:00 +18°C° 0 mm 3 mps 746 mmHg 53%
    12:00 +19°C° 0 mm 3 mps 746 mmHg 50%
    13:00 +20°C° 0 mm 3 mps 746 mmHg 47%
    14:00 +19°C° 0 mm 3 mps 746 mmHg 50%
    15:00 +18°C° 0 mm 2 mps 746 mmHg 54%
    16:00 +17°C° 0 mm 2 mps 746 mmHg 57%
    17:00 +16°C° 0 mm 2 mps 746 mmHg 59%
    18:00 +15°C° 0 mm 2 mps 746 mmHg 62%
    19:00 +15°C° 0 mm 2 mps 746 mmHg 64%
    20:00 +15°C° 0 mm 2 mps 746 mmHg 63%
    21:00 +15°C° 0 mm 2 mps 746 mmHg 62%
    22:00 +15°C° 0 mm 2 mps 746 mmHg 61%
    23:00 +15°C° 0 mm 2 mps 746 mmHg 62%

    Day after tomorrow, 18 October, Friday

    Time Temperature Precipitation Wind Pressure Humidity
    00:00 +15°C° 0 mm 1 mps 746 mmHg 64%
    01:00 +14°C° 0 mm 1 mps 746 mmHg 65%
    02:00 +14°C° 0 mm 1 mps 746 mmHg 68%
    03:00 +13°C° 0 mm 2 mps 746 mmHg 72%
    04:00 +13°C° 0 mm 2 mps 746 mmHg 75%
    05:00 +13°C° 0 mm 2 mps 746 mmHg 79%
    06:00 +13°C° 0 mm 2 mps 746 mmHg 83%
    07:00 +12°C° 0 mm 2 mps 746 mmHg 87%
    08:00 +14°C° 0 mm 2 mps 746 mmHg 80%
    09:00 +15°C° 0 mm 2 mps 746 mmHg 73%
    10:00 +17°C° 0 mm 2 mps 746 mmHg 67%
    11:00 +18°C° 0 mm 2 mps 746 mmHg 63%
    12:00 +19°C° 0 mm 2 mps 746 mmHg 60%
    13:00 +19°C° 0 mm 2 mps 746 mmHg 57%
    14:00 +20°C° 0 mm 1 mps 746 mmHg 60%
    15:00 +19°C° 0 mm 1 mps 745 mmHg 64%
    16:00 +19°C° 0 mm 1 mps 745 mmHg 67%
    17:00 +18°C° 0 mm 1 mps 745 mmHg 69%
    18:00 +16°C° 0 mm 1 mps 745 mmHg 72%
    19:00 +16°C° 0 mm 1 mps 745 mmHg 74%
    20:00 +15°C° 0 mm 1 mps 745 mmHg 76%
    21:00 +15°C° 0 mm 1 mps 746 mmHg 78%
    22:00 +15°C° 0 mm 1 mps 746 mmHg 79%
    23:00 +14°C° 0 mm 1 mps 745 mmHg 81%

    19 October, Saturday

    Time Temperature Precipitation Wind Pressure Humidity
    00:00 +14°C° 0 mm 1 mps 745 mmHg 83%
    01:00 +14°C° 0 mm 1 mps 745 mmHg 85%
    02:00 +13°C° 0 mm 1 mps 745 mmHg 85%
    03:00 +13°C° 0 mm 1 mps 745 mmHg 86%
    04:00 +13°C° 0 mm 2 mps 744 mmHg 87%
    05:00 +13°C° 0 mm 2 mps 744 mmHg 88%
    06:00 +13°C° 0 mm 2 mps 744 mmHg 88%
    07:00 +13°C° 0 mm 2 mps 744 mmHg 89%
    08:00 +15°C° 0 mm 2 mps 743 mmHg 82%
    09:00 +16°C° 0 mm 3 mps 743 mmHg 75%
    10:00 +18°C° 0 mm 3 mps 743 mmHg 69%
    11:00 +19°C° 0 mm 3 mps 742 mmHg 65%
    12:00 +20°C° 0 mm 3 mps 742 mmHg 62%
    13:00 +21°C° 0 mm 3 mps 742 mmHg 58%
    14:00 +20°C° 0 mm 3 mps 741 mmHg 61%
    15:00 +19°C° 0 mm 3 mps 741 mmHg 63%
    16:00 +19°C° 0 mm 2 mps 741 mmHg 66%
    17:00 +18°C° 0 mm 2 mps 741 mmHg 68%
    18:00 +17°C° 0 mm 2 mps 741 mmHg 69%
    19:00 +16°C° 0 mm 2 mps 741 mmHg 71%
    20:00 +16°C° 0 mm 2 mps 741 mmHg 69%
    21:00 +17°C° 0 mm 3 mps 741 mmHg 68%
    22:00 +17°C° 0 mm 3 mps 741 mmHg 66%
    23:00 +16°C° 0 mm 3 mps 741 mmHg 68%

    20 October, Sunday

    Time Temperature Precipitation Wind Pressure Humidity
    00:00 +14°C° 0 mm 3 mps 741 mmHg 70%
    01:00 +14°C° 0 mm 3 mps 741 mmHg 72%
    02:00 +13°C° 0 mm 3 mps 741 mmHg 75%
    03:00 +13°C° 0 mm 3 mps 742 mmHg 78%
    04:00 +13°C° 0 mm 2 mps 742 mmHg 81%
    05:00 +13°C° 0 mm 2 mps 742 mmHg 82%
    06:00 +13°C° 0 mm 2 mps 742 mmHg 83%
    07:00 +13°C° 0 mm 2 mps 743 mmHg 84%
    08:00 +13°C° 0 mm 3 mps 743 mmHg 78%
    09:00 +15°C° 0 mm 4 mps 743 mmHg 72%
    10:00 +17°C° 0 mm 4 mps 744 mmHg 66%
    11:00 +18°C° 0 mm 4 mps 744 mmHg 64%
    12:00 +18°C° 0 mm 4 mps 744 mmHg 62%
    13:00 +19°C° 0 mm 3 mps 744 mmHg 60%
    14:00 +18°C° 0 mm 3 mps 745 mmHg 63%
    15:00 +17°C° 0 mm 2 mps 745 mmHg 66%
    16:00 +18°C° 0 mm 1 mps 745 mmHg 69%
    17:00 +16°C° 0 mm 1 mps 745 mmHg 72%
    18:00 +15°C° 0 mm 1 mps 746 mmHg 76%
    19:00 +14°C° 0 mm 1 mps 746 mmHg 79%
    20:00 +14°C° 0 mm 1 mps 746 mmHg 81%
    21:00 +12°C° 0 mm 0 mps 747 mmHg 83%
    22:00 +12°C° 0 mm 0 mps 747 mmHg 85%
    23:00 +13°C° 0.1 mm 1 mps 747 mmHg 85%

    21 October, Monday

    Time Temperature Precipitation Wind Pressure Humidity
    00:00 +13°C° 0.1 mm 1 mps 747 mmHg 84%
    01:00 +14°C° 0.1 mm 1 mps 747 mmHg 84%
    02:00 +14°C° 0.2 mm 2 mps 747 mmHg 85%
    03:00 +14°C° 0.2 mm 2 mps 747 mmHg 86%
    04:00 +14°C° 0.2 mm 2 mps 746 mmHg 87%
    05:00 +13°C° 0.1 mm 2 mps 746 mmHg 87%
    06:00 +13°C° 0.1 mm 2 mps 746 mmHg 88%
    07:00 +13°C° 0.1 mm 2 mps 746 mmHg 89%
    08:00 +15°C° 0 mm 2 mps 746 mmHg 81%
    09:00 +16°C° 0 mm 2 mps 746 mmHg 74%
    10:00 +18°C° 0 mm 2 mps 746 mmHg 66%
    11:00 +18°C° 0 mm 2 mps 746 mmHg 66%
    12:00 +18°C° 0 mm 2 mps 745 mmHg 66%
    13:00 +19°C° 0 mm 2 mps 745 mmHg 66%
    14:00 +18°C° 0 mm 2 mps 745 mmHg 68%
    15:00 +18°C° 0 mm 2 mps 745 mmHg 71%
    16:00 +17°C° 0 mm 2 mps 745 mmHg 73%
    17:00 +17°C° 0 mm 2 mps 745 mmHg 77%
    18:00 +16°C° 0 mm 2 mps 746 mmHg 80%
    19:00 +15°C° 0 mm 2 mps 746 mmHg 83%
    20:00 +15°C° 0 mm 2 mps 746 mmHg 84%
    21:00 +15°C° 0 mm 2 mps 746 mmHg 84%
    22:00 +15°C° 0 mm 2 mps 746 mmHg 84%
    23:00 +15°C° 0.1 mm 2 mps 746 mmHg 87%
    Show more